When you browse on this site, cookies collect data to enhance your experience and personalize the content and advertising you see.
Visit our Privacy Policy to learn more. By continuing to use the site, you agree to this use of cookies and data.
  • In Hungary
  • List of Countries
  • For 7 days
  • Water Temperature
  • Satellite Maps
  • Weather Map
  • News
  • Weather Widgets
  • user-avatar
    Login

    Hourly Weather Kutaisi

    Today, 20 January, Sunday

    Time Temperature Precipitation Wind Pressure Humidity
    00:00 +4°C° 0 mm 1 mps 754 mmHg 56%
    01:00 +4°C° 0 mm 1 mps 754 mmHg 55%
    02:00 +4°C° 0 mm 1 mps 754 mmHg 55%
    03:00 +4°C° 0 mm 1 mps 754 mmHg 54%
    04:00 +4°C° 0 mm 1 mps 754 mmHg 54%
    05:00 +4°C° 0 mm 1 mps 754 mmHg 53%
    06:00 +4°C° 0 mm 1 mps 754 mmHg 52%
    07:00 +4°C° 0 mm 1 mps 754 mmHg 51%
    08:00 +5°C° 0 mm 1 mps 754 mmHg 50%
    09:00 +5°C° 0 mm 1 mps 754 mmHg 49%
    10:00 +7°C° 0 mm 1 mps 754 mmHg 46%
    11:00 +8°C° 0 mm 1 mps 753 mmHg 42%
    12:00 +9°C° 0 mm 1 mps 753 mmHg 38%
    13:00 +9°C° 0 mm 1 mps 753 mmHg 40%
    14:00 +9°C° 0 mm 1 mps 753 mmHg 43%
    15:00 +10°C° 0 mm 1 mps 753 mmHg 45%
    16:00 +8°C° 0 mm 1 mps 753 mmHg 50%
    17:00 +7°C° 0 mm 1 mps 753 mmHg 55%
    18:00 +5°C° 0 mm 2 mps 754 mmHg 60%
    19:00 +5°C° 0 mm 2 mps 754 mmHg 60%
    20:00 +5°C° 0 mm 2 mps 754 mmHg 61%
    21:00 +4°C° 0 mm 2 mps 754 mmHg 61%
    22:00 +4°C° 0 mm 2 mps 754 mmHg 60%
    23:00 +4°C° 0 mm 2 mps 754 mmHg 59%

    Tomorrow, 21 January, Monday

    Time Temperature Precipitation Wind Pressure Humidity
    00:00 +3°C° 0 mm 3 mps 754 mmHg 57%
    01:00 +3°C° 0 mm 3 mps 754 mmHg 56%
    02:00 +3°C° 0 mm 3 mps 754 mmHg 56%
    03:00 +3°C° 0 mm 3 mps 754 mmHg 55%
    04:00 +3°C° 0 mm 3 mps 754 mmHg 54%
    05:00 +3°C° 0 mm 3 mps 753 mmHg 54%
    06:00 +3°C° 0 mm 3 mps 753 mmHg 53%
    07:00 +3°C° 0 mm 3 mps 753 mmHg 51%
    08:00 +4°C° 0 mm 3 mps 753 mmHg 49%
    09:00 +4°C° 0 mm 3 mps 752 mmHg 47%
    10:00 +7°C° 0 mm 3 mps 752 mmHg 44%
    11:00 +8°C° 0 mm 4 mps 751 mmHg 40%
    12:00 +10°C° 0 mm 4 mps 750 mmHg 36%
    13:00 +11°C° 0 mm 3 mps 750 mmHg 37%
    14:00 +11°C° 0 mm 3 mps 749 mmHg 37%
    15:00 +11°C° 0 mm 3 mps 749 mmHg 38%
    16:00 +9°C° 0 mm 2 mps 750 mmHg 43%
    17:00 +8°C° 0 mm 2 mps 750 mmHg 48%
    18:00 +6°C° 0 mm 2 mps 751 mmHg 54%
    19:00 +6°C° 0 mm 2 mps 751 mmHg 54%
    20:00 +5°C° 0 mm 2 mps 751 mmHg 55%
    21:00 +5°C° 0 mm 2 mps 751 mmHg 56%
    22:00 +5°C° 0 mm 2 mps 751 mmHg 55%
    23:00 +4°C° 0 mm 2 mps 751 mmHg 54%

    Day after tomorrow, 22 January, Tuesday

    Time Temperature Precipitation Wind Pressure Humidity
    00:00 +4°C° 0 mm 2 mps 751 mmHg 54%
    01:00 +4°C° 0 mm 2 mps 751 mmHg 54%
    02:00 +4°C° 0 mm 2 mps 751 mmHg 53%
    03:00 +4°C° 0 mm 2 mps 751 mmHg 53%
    04:00 +4°C° 0 mm 2 mps 751 mmHg 53%
    05:00 +4°C° 0 mm 1 mps 751 mmHg 53%
    06:00 +4°C° 0 mm 1 mps 751 mmHg 53%
    07:00 +5°C° 0 mm 1 mps 751 mmHg 53%
    08:00 +6°C° 0 mm 1 mps 751 mmHg 52%
    09:00 +6°C° 0 mm 1 mps 751 mmHg 52%
    10:00 +7°C° 0 mm 1 mps 751 mmHg 51%
    11:00 +8°C° 0 mm 1 mps 750 mmHg 51%
    12:00 +9°C° 0 mm 1 mps 750 mmHg 50%
    13:00 +8°C° 0.2 mm 1 mps 750 mmHg 55%
    14:00 +8°C° 0.2 mm 1 mps 750 mmHg 61%
    15:00 +7°C° 0.2 mm 1 mps 750 mmHg 66%
    16:00 +7°C° 0.4 mm 1 mps 750 mmHg 71%
    17:00 +5°C° 0.4 mm 0 mps 750 mmHg 76%
    18:00 +5°C° 0.4 mm 0 mps 751 mmHg 80%
    19:00 +5°C° 0.3 mm 0 mps 751 mmHg 81%
    20:00 +5°C° 0.3 mm 0 mps 752 mmHg 82%
    21:00 +5°C° 0.3 mm 0 mps 752 mmHg 83%
    22:00 +4°C° 0.1 mm 0 mps 752 mmHg 83%
    23:00 +4°C° 0.1 mm 0 mps 752 mmHg 83%

    23 January, Wednesday

    Time Temperature Precipitation Wind Pressure Humidity
    00:00 +5°C° 0.1 mm 1 mps 752 mmHg 83%
    01:00 +5°C° 0 mm 1 mps 752 mmHg 81%
    02:00 +5°C° 0 mm 1 mps 752 mmHg 80%
    03:00 +5°C° 0 mm 1 mps 752 mmHg 78%
    04:00 +3°C° 0 mm 2 mps 752 mmHg 76%
    05:00 +3°C° 0 mm 2 mps 752 mmHg 73%
    06:00 +3°C° 0 mm 2 mps 751 mmHg 71%
    07:00 +4°C° 0 mm 2 mps 752 mmHg 68%
    08:00 +4°C° 0 mm 2 mps 752 mmHg 65%
    09:00 +5°C° 0 mm 2 mps 752 mmHg 62%
    10:00 +6°C° 0 mm 2 mps 751 mmHg 58%
    11:00 +8°C° 0 mm 3 mps 751 mmHg 55%
    12:00 +9°C° 0 mm 3 mps 751 mmHg 52%
    13:00 +10°C° 0 mm 3 mps 750 mmHg 52%
    14:00 +10°C° 0 mm 3 mps 750 mmHg 52%
    15:00 +10°C° 0 mm 3 mps 750 mmHg 52%
    16:00 +9°C° 0 mm 3 mps 750 mmHg 56%
    17:00 +7°C° 0 mm 3 mps 751 mmHg 61%
    18:00 +5°C° 0 mm 3 mps 752 mmHg 65%
    19:00 +5°C° 0 mm 3 mps 752 mmHg 64%
    20:00 +4°C° 0 mm 3 mps 752 mmHg 63%
    21:00 +4°C° 0 mm 3 mps 753 mmHg 62%
    22:00 +4°C° 0 mm 3 mps 753 mmHg 61%
    23:00 +3°C° 0 mm 3 mps 753 mmHg 60%

    24 January, Thursday

    Time Temperature Precipitation Wind Pressure Humidity
    00:00 +3°C° 0 mm 3 mps 753 mmHg 59%
    01:00 +3°C° 0 mm 3 mps 753 mmHg 59%
    02:00 +3°C° 0 mm 3 mps 753 mmHg 59%
    03:00 +3°C° 0 mm 3 mps 753 mmHg 58%
    04:00 +3°C° 0 mm 4 mps 753 mmHg 58%
    05:00 +3°C° 0 mm 4 mps 752 mmHg 57%
    06:00 +3°C° 0 mm 4 mps 752 mmHg 57%
    07:00 +3°C° 0 mm 4 mps 752 mmHg 55%
    08:00 +4°C° 0 mm 4 mps 752 mmHg 53%
    09:00 +5°C° 0 mm 4 mps 752 mmHg 51%
    10:00 +7°C° 0 mm 4 mps 752 mmHg 48%
    11:00 +8°C° 0 mm 5 mps 751 mmHg 45%
    12:00 +10°C° 0 mm 5 mps 750 mmHg 42%
    13:00 +10°C° 0 mm 5 mps 750 mmHg 42%
    14:00 +10°C° 0 mm 5 mps 749 mmHg 42%
    15:00 +12°C° 0 mm 5 mps 749 mmHg 42%
    16:00 +9°C° 0 mm 5 mps 749 mmHg 44%
    17:00 +8°C° 0 mm 5 mps 750 mmHg 47%
    18:00 +7°C° 0 mm 5 mps 750 mmHg 49%
    19:00 +6°C° 0 mm 5 mps 750 mmHg 49%
    20:00 +6°C° 0 mm 5 mps 750 mmHg 48%
    21:00 +6°C° 0 mm 5 mps 750 mmHg 47%
    22:00 +6°C° 0 mm 5 mps 750 mmHg 47%
    23:00 +6°C° 0 mm 5 mps 750 mmHg 47%

    25 January, Friday

    Time Temperature Precipitation Wind Pressure Humidity
    00:00 +5°C° 0 mm 5 mps 750 mmHg 48%
    01:00 +5°C° 0 mm 5 mps 750 mmHg 49%
    02:00 +5°C° 0 mm 5 mps 750 mmHg 50%
    03:00 +5°C° 0 mm 5 mps 750 mmHg 50%
    04:00 +5°C° 0 mm 4 mps 749 mmHg 51%
    05:00 +5°C° 0 mm 4 mps 749 mmHg 52%
    06:00 +5°C° 0 mm 4 mps 749 mmHg 52%
    07:00 +5°C° 0 mm 4 mps 749 mmHg 52%
    08:00 +6°C° 0 mm 4 mps 749 mmHg 52%
    09:00 +6°C° 0 mm 4 mps 749 mmHg 51%
    10:00 +8°C° 0 mm 4 mps 748 mmHg 49%
    11:00 +10°C° 0 mm 4 mps 748 mmHg 46%
    12:00 +11°C° 0 mm 4 mps 747 mmHg 43%
    13:00 +12°C° 0 mm 4 mps 747 mmHg 44%
    14:00 +12°C° 0 mm 4 mps 746 mmHg 45%
    15:00 +13°C° 0 mm 3 mps 746 mmHg 46%
    16:00 +12°C° 0 mm 3 mps 746 mmHg 50%
    17:00 +11°C° 0 mm 3 mps 747 mmHg 54%
    18:00 +9°C° 0 mm 3 mps 747 mmHg 58%
    19:00 +9°C° 0 mm 3 mps 747 mmHg 58%
    20:00 +9°C° 0 mm 3 mps 747 mmHg 58%
    21:00 +9°C° 0 mm 3 mps 747 mmHg 58%
    22:00 +8°C° 0 mm 3 mps 747 mmHg 58%
    23:00 +8°C° 0 mm 3 mps 747 mmHg 58%
    Show more